EW8356 Weather Reports


Display with metric or nautical units.
time (UTC)temp
F
wind
direction
speed
MPH
gust
MPH
rain 1hr
in
rain 24hr
in
rain mn
in
humidity
%
barometer
mb
20260507141548 70 156 3.0 7.0 0.00 0.01 0.01 50 1013.6
20260507141031 70 102 2.0 7.0 0.00 0.01 0.01 51 1013.7
20260507140531 70 121 2.0 7.0 0.00 0.01 0.01 50 1013.7
20260507135531 69 93 3.0 7.0 0.00 0.01 0.01 53 1013.8
20260507135031 70 80 3.0 7.0 0.00 0.01 0.01 52 1013.9
20260507134544 70 103 3.0 7.0 0.00 0.01 0.01 51 1014.0
20260507134031 70 90 2.0 4.0 0.00 0.01 0.01 52 1014.0
20260507133531 70 5 2.0 6.0 0.00 0.01 0.01 50 1014.0
20260507133058 70 0 2.0 6.0 0.00 0.01 0.01 51 1014.1
20260507132530 70 186 3.0 6.0 0.00 0.01 0.01 51 1014.2
20260507132034 69 12 1.0 6.0 0.00 0.01 0.01 55 1014.2
20260507131549 69 30 3.0 9.0 0.00 0.01 0.01 52 1014.3
20260507131031 69 36 4.0 9.0 0.00 0.01 0.01 52 1014.3
20260507130530 70 202 5.0 9.0 0.00 0.01 0.01 51 1014.4
20260507130103 69 27 4.0 9.0 0.00 0.01 0.01 56 1014.5
20260507125531 68 57 1.0 10.0 0.00 0.01 0.01 56 1014.4
20260507125031 68 201 6.0 11.0 0.00 0.01 0.01 55 1014.5
20260507124607 69 68 4.0 11.0 0.00 0.01 0.01 56 1014.6
20260507124034 68 5 7.0 11.0 0.00 0.01 0.01 57 1014.6
20260507123533 68 61 6.0 11.0 0.00 0.01 0.01 56 1014.5
20260507123045 68 196 4.0 14.0 0.00 0.01 0.01 57 1014.5
20260507122532 68 27 10.0 14.0 0.00 0.01 0.01 57 1014.5
20260507122032 68 23 7.0 14.0 0.00 0.01 0.01 58 1014.5
20260507121544 68 20 9.0 14.0 0.00 0.01 0.01 58 1014.5
20260507121032 68 15 5.0 11.0 0.00 0.01 0.01 58 1014.6
20260507120532 68 360 6.0 11.0 0.00 0.01 0.01 57 1014.6
20260507120041 67 19 3.0 10.0 0.00 0.01 0.01 56 1014.6
20260507115532 67 204 3.0 10.0 0.00 0.01 0.01 57 1014.6
20260507115033 67 186 6.0 10.0 0.00 0.01 0.01 57 1014.6
20260507114607 67 15 6.0 11.0 0.00 0.01 0.01 59 1014.6
20260507114034 67 188 7.0 11.0 0.00 0.01 0.01 58 1014.7
20260507113532 67 39 2.0 5.0 0.00 0.01 0.01 59 1014.7
20260507113052 67 38 1.0 6.0 0.00 0.01 0.01 59 1014.9
20260507112531 67 9 2.0 7.0 0.00 0.01 0.01 59 1014.8
20260507112032 67 23 2.0 7.0 0.00 0.01 0.01 59 1014.7
20260507111548 67 175 3.0 10.0 0.00 0.01 0.01 58 1014.8
20260507111031 67 191 5.0 10.0 0.00 0.01 0.01 58 1014.9
20260507110531 67 9 2.0 9.0 0.00 0.01 0.01 59 1014.8
20260507110048 67 47 3.0 9.0 0.00 0.01 0.01 59 1014.9
20260507105531 67 360 6.0 9.0 0.00 0.01 0.01 59 1014.9
20260507105032 68 179 3.0 8.0 0.00 0.01 0.01 58 1014.9
20260507104553 68 27 2.0 7.0 0.00 0.01 0.01 58 1014.9
20260507104032 68 165 0.0 7.0 0.00 0.01 0.01 57 1014.9
20260507103532 67 144 3.0 7.0 0.00 0.01 0.01 58 1015.1
20260507103049 67 180 2.0 7.0 0.00 0.01 0.01 59 1015.1
20260507102532 66 144 2.0 9.0 0.00 0.01 0.01 60 1015.1
20260507102032 66 158 5.0 9.0 0.00 0.01 0.01 60 1015.2
20260507101551 66 186 4.0 8.0 0.00 0.01 0.01 61 1015.2
20260507101034 66 194 3.0 8.0 0.00 0.01 0.01 63 1015.2
20260507100532 65 26 5.0 8.0 0.00 0.01 0.01 61 1015.3
20260507100049 65 79 1.0 6.0 0.00 0.01 0.01 62 1015.3
20260507095533 65 19 2.0 6.0 0.00 0.01 0.01 62 1015.2
20260507095032 65 86 3.0 6.0 0.00 0.01 0.01 61 1015.2
20260507094548 65 67 2.0 8.0 0.00 0.01 0.01 63 1015.2
20260507094031 64 22 3.0 8.0 0.00 0.01 0.01 63 1015.2
20260507093531 64 26 3.0 8.0 0.00 0.01 0.01 63 1015.3
20260507093046 64 201 3.0 8.0 0.00 0.01 0.01 63 1015.3
20260507092530 64 18 2.0 6.0 0.00 0.01 0.01 64 1015.2
20260507092031 64 13 2.0 6.0 0.00 0.01 0.01 64 1015.2
20260507091546 64 360 3.0 6.0 0.00 0.01 0.01 63 1015.3
20260507091030 64 202 3.0 5.0 0.00 0.01 0.01 64 1015.3
20260507090531 64 35 2.0 4.0 0.00 0.01 0.01 64 1015.3
20260507090041 64 11 1.0 5.0 0.00 0.01 0.01 64 1015.3
20260507085531 64 34 2.0 5.0 0.00 0.01 0.01 65 1015.3
20260507085031 64 5 2.0 4.0 0.00 0.01 0.01 66 1015.3
20260507084550 64 83 1.0 4.0 0.00 0.01 0.01 69 1015.2
20260507084031 63 98 1.0 4.0 0.00 0.01 0.01 70 1015.2
20260507083532 63 80 2.0 3.0 0.00 0.01 0.01 71 1015.3
20260507083049 62 150 0.0 3.0 0.00 0.01 0.01 73 1015.3
20260507082530 61 0 0.0 6.0 0.00 0.01 0.01 74 1015.4
20260507082030 61 116 1.0 7.0 0.00 0.01 0.01 75 1015.3
20260507081547 61 100 4.0 7.0 0.00 0.01 0.01 76 1015.3
20260507081032 60 78 2.0 7.0 0.00 0.01 0.01 79 1015.4
20260507080531 60 138 3.0 7.0 0.00 0.01 0.01 79 1015.5
20260507080045 59 105 3.0 9.0 0.00 0.01 0.01 79 1015.5
20260507075530 59 129 2.0 9.0 0.00 0.01 0.01 81 1015.4
20260507075033 58 105 6.0 9.0 0.00 0.01 0.01 81 1015.4
20260507074556 58 125 4.0 8.0 0.00 0.01 0.01 82 1015.4
20260507074030 58 111 2.0 8.0 0.00 0.01 0.01 83 1015.4
20260507073530 58 116 4.0 8.0 0.00 0.01 0.01 82 1015.4
20260507073048 57 117 3.0 7.0 0.00 0.01 0.01 81 1015.4
20260507072530 57 111 3.0 7.0 0.00 0.01 0.01 80 1015.3
20260507072031 57 90 2.0 4.0 0.00 0.01 0.01 80 1015.4
20260507071550 56 116 1.0 4.0 0.00 0.01 0.01 82 1015.4
20260507071030 56 90 2.0 4.0 0.00 0.01 0.01 83 1015.3
20260507070533 56 127 3.0 4.0 0.00 0.01 0.01 84 1015.4
20260507070106 55 112 3.0 4.0 0.00 0.01 0.01 85 1015.2
20260507065529 54 109 1.0 4.0 0.00 0.00 0.00 85 1015.1
20260507065030 54 118 2.0 5.0 0.00 0.00 0.00 86 1015.3
20260507064550 54 128 2.0 5.0 0.00 0.00 0.00 86 1015.2
20260507064030 54 138 2.0 4.0 0.00 0.00 0.00 86 1015.2
20260507063531 54 154 1.0 5.0 0.00 0.00 0.00 86 1015.2
20260507063056 54 140 2.0 8.0 0.00 0.00 0.00 85 1015.2
20260507062531 54 129 3.0 8.0 0.00 0.00 0.00 85 1015.2
20260507062031 54 145 2.0 6.0 0.00 0.00 0.00 86 1015.2
20260507061549 54 161 2.0 5.0 0.00 0.00 0.00 86 1015.3
20260507061032 54 156 1.0 3.0 0.00 0.00 0.00 86 1015.3
20260507060543 54 132 1.0 4.0 0.00 0.00 0.00 86 1015.2
20260507060050 54 136 2.0 4.0 0.00 0.00 0.00 87 1015.2
20260507055531 55 144 2.0 5.0 0.00 0.00 0.00 87 1015.2
20260507055032 55 137 1.0 5.0 0.00 0.00 0.00 88 1015.2
20260507054545 55 165 2.0 5.0 0.00 0.00 0.00 88 1015.1
20260507054031 55 169 2.0 5.0 0.00 0.00 0.00 88 1015.1
20260507053531 55 168 2.0 5.0 0.00 0.00 0.00 88 1015.1
20260507053046 56 158 2.0 5.0 0.00 0.00 0.00 88 1015.1
20260507052532 56 159 1.0 3.0 0.00 0.00 0.00 88 1015.1
20260507052032 55 0 1.0 3.0 0.00 0.00 0.00 88 1014.9
20260507051551 55 140 1.0 3.0 0.00 0.00 0.00 88 1014.9
20260507051031 55 142 1.0 2.0 0.00 0.00 0.00 88 1014.9
20260507050533 55 0 0.0 2.0 0.00 0.00 0.00 88 1014.8
20260507050048 55 182 0.0 2.0 0.00 0.00 0.00 88 1014.9
20260507045532 55 0 0.0 2.0 0.00 0.00 0.00 88 1014.8
20260507045032 55 22 1.0 2.0 0.00 0.00 0.00 88 1014.7
20260507044552 55 23 0.0 2.0 0.00 0.00 0.00 88 1014.6
20260507044032 55 0 0.0 2.0 0.00 0.00 0.00 88 1014.6
20260507043531 55 0 0.0 2.0 0.00 0.00 0.00 88 1014.6
20260507043049 55 12 0.0 2.0 0.00 0.00 0.00 88 1014.7
20260507042531 55 0 0.0 2.0 0.00 0.00 0.00 88 1014.6
20260507042033 55 0 0.0 3.0 0.00 0.00 0.00 88 1014.6
20260507041549 55 0 0.0 3.0 0.00 0.00 0.00 88 1014.5
20260507041033 55 12 1.0 3.0 0.00 0.00 0.00 87 1014.3
20260507040533 55 16 2.0 3.0 0.00 0.00 0.00 87 1014.2
20260507040049 55 49 0.0 3.0 0.00 0.00 0.00 87 1014.2
20260507035531 55 38 1.0 4.0 0.00 0.00 0.00 87 1014.2
20260507035032 55 11 1.0 4.0 0.00 0.00 0.00 87 1014.1
20260507034547 55 5 2.0 4.0 0.00 0.00 0.00 87 1014.1
20260507034031 56 25 1.0 4.0 0.00 0.00 0.00 87 1014.2
20260507033533 56 5 1.0 6.0 0.00 0.00 0.00 87 1014.1
20260507033048 56 198 3.0 6.0 0.00 0.00 0.00 87 1014.1
20260507032534 55 201 4.0 8.0 0.00 0.00 0.00 87 1014.1
20260507032032 55 360 4.0 8.0 0.00 0.00 0.00 87 1014.1
20260507031547 55 205 4.0 8.0 0.00 0.00 0.00 88 1014.0
20260507031032 56 205 6.0 8.0 0.00 0.00 0.00 88 1014.1
20260507030532 57 190 4.0 6.0 0.00 0.00 0.00 89 1014.1
20260507030050 57 205 1.0 3.0 0.00 0.00 0.00 89 1014.0
20260507025530 57 44 0.0 2.0 0.00 0.01 0.00 89 1013.9
20260507025032 57 0 1.0 8.0 0.00 0.01 0.00 89 1013.9
20260507024549 57 0 1.0 8.0 0.00 0.01 0.00 89 1013.9
20260507024032 57 173 4.0 8.0 0.00 0.00 0.00 89 1013.9
20260507023531 57 166 3.0 8.0 0.00 0.00 0.00 89 1014.0
20260507023047 57 154 4.0 9.0 0.00 0.00 0.00 89 1013.8
20260507022532 57 112 5.0 9.0 0.00 0.00 0.00 89 1013.8
20260507022032 58 102 3.0 8.0 0.00 0.00 0.00 89 1013.8
20260507021547 57 102 4.0 9.0 0.00 0.00 0.00 89 1013.8
20260507021034 58 101 5.0 9.0 0.00 0.00 0.00 88 1013.8
20260507020532 58 87 3.0 7.0 0.00 0.00 0.00 89 1013.7
20260507020046 58 114 1.0 4.0 0.00 0.00 0.00 88 1013.7
20260507015534 58 0 1.0 4.0 0.00 0.01 0.00 88 1013.8
20260507015032 58 144 1.0 6.0 0.00 0.01 0.00 88 1013.7
20260507014554 58 134 2.0 8.0 0.00 0.01 0.00 88 1013.6
20260507014033 58 106 3.0 9.0 0.00 0.01 0.00 88 1013.5
20260507013531 58 99 4.0 10.0 0.00 0.01 0.00 88 1013.5
20260507013101 58 101 5.0 11.0 0.00 0.01 0.00 87 1013.5
20260507012531 58 80 6.0 11.0 0.00 0.01 0.00 87 1013.5
20260507012032 59 89 5.0 8.0 0.00 0.01 0.00 87 1013.5
20260507011548 58 90 3.0 6.0 0.00 0.01 0.00 86 1013.6
20260507011033 58 93 2.0 3.0 0.00 0.01 0.00 86 1013.6
20260507010532 58 100 1.0 3.0 0.00 0.01 0.00 86 1013.6
20260507010056 59 113 0.0 3.0 0.00 0.01 0.00 86 1013.6
20260507005532 59 0 0.0 3.0 0.00 0.01 0.00 86 1013.6
20260507005031 59 113 0.0 3.0 0.00 0.01 0.00 86 1013.6
20260507004547 59 112 1.0 3.0 0.00 0.01 0.00 86 1013.6
20260507004031 59 0 1.0 3.0 0.00 0.01 0.00 85 1013.7
20260507003533 59 0 0.0 2.0 0.00 0.01 0.00 85 1013.6
20260507003042 59 0 0.0 4.0 0.00 0.01 0.00 85 1013.7
20260507002531 59 126 2.0 7.0 0.00 0.01 0.00 84 1013.7
20260507002031 59 122 3.0 9.0 0.00 0.01 0.00 85 1013.6
20260507001552 59 115 5.0 9.0 0.00 0.01 0.00 84 1013.7
20260507001030 60 91 3.0 4.0 0.00 0.01 0.00 84 1013.7
20260507000532 60 97 1.0 4.0 0.00 0.01 0.00 83 1013.7
20260507000049 60 116 1.0 4.0 0.00 0.01 0.00 83 1013.8
20260506235531 60 107 2.0 4.0 0.00 0.01 0.00 82 1013.8
20260506235031 60 101 2.0 4.0 0.00 0.01 0.00 82 1013.8
20260506234548 60 97 1.0 3.0 0.00 0.01 0.00 82 1013.8
20260506234031 60 92 1.0 4.0 0.00 0.01 0.00 81 1013.7
20260506233532 60 97 1.0 4.0 0.00 0.01 0.00 81 1013.8
20260506233100 60 125 0.0 4.0 0.00 0.01 0.00 81 1013.8
20260506232531 60 0 1.0 6.0 0.00 0.01 0.00 81 1013.7
20260506232031 60 138 2.0 6.0 0.00 0.01 0.00 81 1013.7
20260506231546 60 90 4.0 6.0 0.00 0.01 0.00 80 1013.7
20260506231031 60 123 2.0 7.0 0.00 0.01 0.00 80 1013.9
20260506230531 61 113 2.0 7.0 0.00 0.01 0.00 79 1013.9
20260506225533 61 105 1.0 4.0 0.00 0.01 0.00 79 1013.9
20260506225031 61 104 2.0 4.0 0.00 0.01 0.00 79 1013.9
20260506224549 61 121 2.0 4.0 0.00 0.01 0.00 79 1013.9
20260506224031 61 111 2.0 4.0 0.00 0.01 0.00 78 1014.0
20260506223534 61 117 2.0 6.0 0.00 0.01 0.00 78 1014.1
20260506223050 61 115 2.0 6.0 0.00 0.01 0.00 77 1014.0
20260506222532 61 121 1.0 3.0 0.00 0.01 0.00 77 1014.0
20260506222035 61 83 1.0 3.0 0.00 0.01 0.00 77 1014.1
20260506221558 61 118 0.0 4.0 0.00 0.01 0.00 77 1014.1
20260506221030 61 0 0.0 6.0 0.00 0.01 0.00 77 1014.0
20260506220534 61 82 3.0 6.0 0.00 0.01 0.00 76 1014.0
20260506220048 61 92 2.0 6.0 0.00 0.01 0.00 76 1013.9
20260506215531 61 93 3.0 6.0 0.00 0.01 0.01 76 1014.0
20260506215031 61 120 2.0 5.0 0.00 0.01 0.01 76 1014.0
20260506214546 61 155 1.0 5.0 0.00 0.01 0.01 77 1014.0
20260506214030 61 155 3.0 10.0 0.00 0.01 0.01 77 1013.9
20260506213531 61 130 5.0 10.0 0.00 0.01 0.01 77 1013.9
20260506213048 61 142 4.0 15.0 0.00 0.01 0.01 77 1013.9
20260506212531 61 113 7.0 18.0 0.00 0.01 0.01 77 1013.7
20260506212031 61 117 10.0 18.0 0.00 0.01 0.01 77 1013.6
20260506211604 61 115 12.0 18.0 0.00 0.01 0.01 77 1013.6
20260506211031 61 119 11.0 20.0 0.00 0.01 0.01 77 1013.7
20260506210531 61 114 10.0 20.0 0.00 0.01 0.01 77 1013.9
20260506210049 61 108 11.0 19.0 0.00 0.01 0.01 78 1013.9
20260506205535 61 99 9.0 19.0 0.00 0.01 0.01 80 1013.9
20260506205030 61 110 12.0 19.0 0.00 0.01 0.01 81 1013.9
20260506204548 60 123 8.0 12.0 0.00 0.01 0.01 82 1013.8
20260506204031 60 105 7.0 10.0 0.00 0.01 0.01 82 1013.9
20260506203531 60 106 5.0 10.0 0.00 0.01 0.01 82 1013.9
20260506203048 60 114 6.0 10.0 0.00 0.01 0.01 82 1013.8
20260506202531 61 86 5.0 10.0 0.00 0.01 0.01 81 1013.7
20260506202031 61 101 6.0 10.0 0.00 0.01 0.01 80 1013.6
20260506201549 61 110 5.0 11.0 0.00 0.01 0.01 78 1013.6
20260506201032 62 117 7.0 11.0 0.00 0.01 0.01 78 1013.6
20260506200531 61 125 6.0 10.0 0.00 0.01 0.01 77 1013.5
20260506200052 61 110 5.0 15.0 0.00 0.01 0.01 77 1013.4
20260506195531 62 119 10.0 15.0 0.00 0.01 0.01 77 1013.5
20260506195032 62 118 6.0 15.0 0.00 0.01 0.01 77 1013.4
20260506194553 62 113 7.0 15.0 0.00 0.01 0.01 77 1013.3
20260506194031 62 114 8.0 15.0 0.00 0.01 0.01 77 1013.3
20260506193530 61 125 8.0 13.0 0.00 0.01 0.01 77 1013.2
20260506193047 61 111 7.0 13.0 0.00 0.01 0.01 77 1013.2
20260506192530 61 117 8.0 12.0 0.00 0.01 0.01 77 1013.2
20260506192030 61 112 7.0 12.0 0.00 0.01 0.01 76 1013.2
20260506191546 61 106 6.0 16.0 0.00 0.01 0.01 76 1013.1
20260506191031 62 118 10.0 17.0 0.00 0.01 0.01 76 1013.1
20260506190532 62 119 12.0 17.0 0.00 0.01 0.01 76 1013.0
20260506190047 62 117 10.0 15.0 0.00 0.01 0.01 76 1012.9
20260506185530 62 107 8.0 14.0 0.00 0.01 0.01 75 1012.9
20260506185031 62 113 5.0 9.0 0.00 0.01 0.01 75 1012.9
20260506184549 62 112 5.0 13.0 0.00 0.01 0.01 75 1012.9
20260506184032 62 111 6.0 15.0 0.00 0.01 0.01 74 1012.8
20260506183531 62 110 7.0 18.0 0.00 0.01 0.01 74 1012.7
20260506183041 62 125 10.0 19.0 0.00 0.01 0.01 74 1012.6
20260506182530 62 112 10.0 19.0 0.00 0.01 0.01 74 1012.5
20260506182031 62 128 12.0 19.0 0.00 0.01 0.01 74 1012.3
20260506181548 62 110 12.0 21.0 0.00 0.01 0.01 74 1012.3
20260506181031 62 113 12.0 21.0 0.00 0.01 0.01 74 1012.4
20260506180531 62 109 12.0 23.0 0.00 0.01 0.01 73 1012.4
20260506180049 62 127 12.0 23.0 0.00 0.01 0.01 73 1012.4
20260506175530 62 121 12.0 23.0 0.00 0.01 0.01 73 1012.4
20260506175030 62 130 12.0 23.0 0.00 0.01 0.01 73 1012.3
20260506174548 62 122 10.0 21.0 0.00 0.01 0.01 73 1012.3
20260506174031 63 143 11.0 20.0 0.00 0.01 0.01 72 1012.3
20260506173531 63 121 11.0 19.0 0.00 0.01 0.01 73 1012.3
20260506173100 63 107 10.0 18.0 0.00 0.01 0.01 72 1012.2
20260506172531 63 103 9.0 26.0 0.00 0.01 0.01 72 1012.3
20260506172031 63 115 14.0 26.0 0.00 0.01 0.01 72 1012.3
20260506171551 63 109 13.0 22.0 0.00 0.01 0.01 72 1012.4
20260506171031 63 126 13.0 22.0 0.00 0.01 0.01 71 1012.3
20260506170531 64 134 14.0 23.0 0.00 0.01 0.01 72 1012.2
20260506170100 64 113 11.0 23.0 0.00 0.01 0.01 73 1012.2
20260506165532 64 111 12.0 22.0 0.00 0.01 0.01 73 1012.2
20260506165031 64 130 12.0 20.0 0.00 0.01 0.01 73 1012.3
20260506164606 64 121 12.0 20.0 0.00 0.01 0.01 73 1012.3
20260506164030 64 124 9.0 23.0 0.00 0.01 0.01 73 1012.3
20260506163530 64 124 13.0 23.0 0.00 0.01 0.01 72 1012.3
20260506163047 65 138 12.0 23.0 0.00 0.01 0.01 71 1012.4
20260506162530 65 106 13.0 23.0 0.00 0.01 0.01 71 1012.4
20260506162030 65 121 14.0 21.0 0.00 0.01 0.01 70 1012.3
20260506161551 65 128 10.0 24.0 0.00 0.01 0.01 70 1012.3
20260506161032 66 117 13.0 26.0 0.00 0.01 0.01 69 1012.3
20260506160531 66 118 15.0 26.0 0.00 0.01 0.01 69 1012.1
20260506160055 66 116 9.0 23.0 0.00 0.01 0.01 70 1012.3
20260506155532 66 128 11.0 26.0 0.00 0.01 0.01 69 1012.2
20260506155031 66 131 11.0 29.0 0.00 0.01 0.01 68 1012.2
20260506154554 66 134 14.0 29.0 0.00 0.01 0.01 68 1012.3
20260506154032 66 120 15.0 26.0 0.00 0.01 0.01 69 1012.2
20260506153531 66 111 13.0 23.0 0.00 0.01 0.01 69 1012.3
20260506153042 66 104 14.0 24.0 0.00 0.01 0.01 69 1012.3
20260506152534 66 114 14.0 24.0 0.00 0.01 0.01 69 1012.3
20260506152031 66 108 12.0 26.0 0.00 0.01 0.01 68 1012.3
20260506151548 66 107 15.0 26.0 0.00 0.01 0.01 68 1012.2
20260506151032 66 117 12.0 26.0 0.00 0.01 0.01 69 1012.3
20260506150534 66 119 13.0 26.0 0.00 0.01 0.01 69 1012.3
20260506150048 67 119 16.0 26.0 0.00 0.01 0.01 68 1012.3
20260506145531 67 115 13.0 21.0 0.00 0.01 0.01 69 1012.2
20260506145031 66 132 12.0 18.0 0.00 0.01 0.01 70 1012.2
20260506144548 66 120 9.0 17.0 0.00 0.01 0.01 71 1012.2
20260506144032 66 128 9.0 17.0 0.00 0.01 0.01 70 1012.3
20260506143531 65 121 10.0 17.0 0.00 0.01 0.01 71 1012.4
20260506143046 65 130 9.0 21.0 0.00 0.01 0.01 71 1012.4
20260506142534 65 129 10.0 21.0 0.00 0.01 0.01 71 1012.4
20260506142031 65 113 9.0 19.0 0.00 0.01 0.01 73 1012.3